Powrót do katalogu

OPS 4682 DEB

AktywnyPO
NORAD 18270·DEBRIS·🇺🇸 United States

Wystrzelony Apr 3, 1965 z Vandenberg Space Force Base

Loading…

Następne Przeloty (najbliższe 24 godziny)

TLE

ŚwieżeSource: Space-Track

Epoka: Sep 13, 2026, 07:01 UTC

1 18270U 65027Z   26256.29287669  .00000538  00000-0  18334-2 0  9995
2 18270  90.2386   1.5245 0029426 222.7884 163.0564 12.97212842928014

Śledź OPS 4682 DEB w czasie rzeczywistym z AllMySat

Download on the App Store